Погода Брохово

Погода Брохово : погода сейчас, прогноз погоды и архив. Всё, что Вы хотите узнать о погоде Брохово!

Поиск расширенной информации на нашем сайте:

Полезная информация: http://donupak.ru/ горизонтальная упаковочная машина.

Другие новости

Новости СМИ2

Главная страница сайта

Новости сайта

02.10.2013

Напоминаем, что на нашем новом сайте вы можете получить высокодетализированные прогнозы погоды по пунктам России, СНГ и мира (включающие важные для авиации метеовеличины, такие как направление и скорость ветра, видимость, явления погоды, количество и форма облачности, нижняя и верхняя граница облачности), а также ознакомиться с разнообразными материалами по авиационной метеорологии и подборкой полезных ссылок на эту тему.

Сайт Метеоцентр.Азия посвящён разработке технологий оптимизации авиаметеорологического обслуживания, включая проектирование и перспективное создание нескольких автоматизированных авиаметеорологических систем:
- система выпуска высокодетальных прогностических карт явлений погоды для нижнего воздушного пространства по России и ближнему зарубежью;
- система верификации прогнозов TAF (выпускаемых синоптиками официальных АМСГ РФ и ближнего зарубежья) и AUTOTAF (выпускаемых сайтом Метеоцентр.Азия) - выявление ошибок, онлайн-сопоставление с фактической погодой METAR, автоматическое внесение коррективов в прогнозы при резком отклонении фактической погоды от прогноза, подсчёт оправдываемости прогнозов по элементам и в целом;
- система обработки, анализа и отображения авиаметеорологической информации для применения провайдерами метеорологической информации.

Рекомендуем: Как выбрать точечные светодиодные светильники.

Погода Брохово - сегодня

Время (UTC), дата Ветер
(°,м/с) 
Видим.   Явления Облачность Т
(°С)
Тd
(°С)
f(%) Тe
(°С)
Pmin
(гПа)
dP
(гПа)
Po
(мм)
O2
(г/м3)
Тmin Tmax R s Состояние
почвы
21 23.03.17 030 (СВ) 9-12{14}  10 км  слаб. ливневой снег  10/10 300 м кучево-дожд. 
[Cb cap]
-3.3 -4.3 93 -9  1015.2  -0.1  761  311  -3.4    0.4     
00 24.03.17 040 (СВ) 10-13{14}  10 км  метель{ливн. осадки}  9/9 300 м кучево-дожд. 
[Cb cap]
-3.1 -4.1 93 -9  1015.1  0.1  761  311           
03 24.03.17 040 (СВ) 10-13{14}  10 км  метель  10/4 600 м кучево-дожд., верхняя 
[Cb cap|Cs]
-3.3 -5.1 87 -9  1014.6  -0.5  760  311           
06 24.03.17 040 (СВ) 9-11{14}  20000 м  позёмок  10/1 600 м средняя, верхняя 
[Sc|Ac lent|Cs]
-3.3 -5.9 82 -9  1014.3  -0.3  760  311           
09 24.03.17 050 (СВ) 7{11}  20000 м  позёмок  10/3 600 м средняя, верхняя 
[Sc|Ac lent|Cs]
-5.3 -7.6 84 -10  1014.6  0.3  760  313    -2.9  0.0     
12 24.03.17 010 (С) 20000 м    5/0 верхняя 
[Ci fib]
-6.4 -8.5 85 -10  1014.9  0.3  761  315           
15 24.03.17 010 (С) 20000 м    4/0 средняя, верхняя 
[Ac trans|Ci fib]
-8.1 -10 86 -12  1014.6  -0.3  760  317           
18 24.03.17 350 (С) 20000 м    4/0 средняя, верхняя 
[Ac trans|Ci fib]
-8.6 -10.7 85 -12  1014.5  -0.1  760  317           
21 24.03.17 320 (СЗ) 20000 м    ясно 
-13.6 -15.6 85 -17  1015.1  0.6  761  324  -13.6      92  неравномерный
сухой снег
100% 
00 25.03.17 320 (СЗ) 20000 м    1/0 средняя 
[Ac trans]
-8.7 -11.7 79 -12  1015.5  0.4  761  318           
03 25.03.17 010 (С) 20000 м    3/0 средняя 
[Ac trans]
-4.1 -8.2 73 -5  1014.9  -0.6  761  312           
06 25.03.17 020 (С) 20000 м    ясно 
-5 -9.1 73 -6  1014.9  761  313           
09 25.03.17 350 (С) 20000 м    ясно 
-9.4 -11.9 82 -12  1015.5  0.6  761  319    -3.3       
12 25.03.17 330 (СЗ) 20000 м    ясно 
-13.7 -15.3 88 -19  1015.9  0.4  761  324           
15 25.03.17 310 (СЗ) 20000 м    ясно 
-14 -15.7 87 -19  1015.9  761  325           
18 25.03.17 310 (СЗ) 20000 м    10/0 средняя 
[Ac und]
-12.8 -14.8 85 -17  1015.8  -0.1  761  323           
21 25.03.17 320 (СЗ) 20000 м    10/0 средняя 
[Ac und]
-12.9 -15.2 83 -17  1016.5  0.7  762  324  -16.3      92  неравномерный
сухой снег
100% 
00 26.03.17 340 (С) 20000 м    10/4 1000 м средняя 
[Sc|Ac und]
-9.1 -12.2 78 -11  1016.9  0.4  762  319           
03 26.03.17 050 (СВ) 20000 м    9/0 средняя 
[Ac trans]
-3.7 -10.1 61 -5  1016.2  -0.6  762  312           
06 26.03.17 140 (ЮВ) 20000 м    3/0 верхняя 
[Ci fib]
-4.3 -8.8 71 -6  1015.6  -0.6  761  313           
09 26.03.17 360 (С) 20000 м    1/0 верхняя 
[Ci fib]
-10.8 -12.7 86 -13  1015.9  0.3  761  321    -3       
12 26.03.17 350 (С) 20000 м    3/0 верхняя 
[Ci fib]
-14.4 -16 88 -17  1016  0.1  761  325           
15 26.03.17 300 (СЗ) 20000 м    1/0 верхняя 
[Ci fib]
-17.6 -19.2 87 -22  1015.7  -0.3  761  329           
18 26.03.17 320 (СЗ) 20000 м    5/0 верхняя 
[Ci fib]
-17.3 -18.9 87 -21  1015.3  -0.3  761  329           
21 26.03.17 310 (СЗ) 20000 м    8/3 1000 м верхняя 
[Sc|Ci fib]
-17.9 -19.7 86 -22  1015.7  0.4  761  330  -19.8      92  неравномерный
мокрый или
старый снег
100% 
Время (UTC), дата Ветер
(°,м/с) 
Видим.   Явления Облачность Т
(°С)
Тd
(°С)
f(%) Тe
(°С)
Pmin
(гПа)
dP
(гПа)
Po
(мм)
O2
(г/м3)
Тmin Tmax R s Состояние
почвы

Для получения пояснительной информации подведите курсор к названию столбца.

ПОГОДА Брохово - архив

Всё, что Вы хотите узнать о погоде Брохово - удобно и подробно!

Выберите нужную дату (начиная с 1 января 2015* года) и нажмите кнопку "Найти".
Будут отображены архивные сводки погоды по пункту Брохово, начиная с указанной даты.


Отображать данные в формате CSV (для использования в таблицах Excel)


Внимание! Наш архив погоды предназначен исключительно для личного некоммерческого использования в познавательных целях. Если Вам необходимы официальные справки о состоянии погоды (для производственных, юридических, коммерческих и т.п. целей), обращайтесь в органы Росгидромета.

*Примечание: данная дата относится к архиву по метеостанциям СССР (Россия, СНГ, Балтия).
Архив по метеостанциям Зарубежной Европы и Азии (кроме Китая) хранится 10 дней, по другим регионам земного шара (Китай, Африка, Америка, Австралия, Океания) - 1 день.

Брохово - район местоположения метеостанции


Название, широта, долгота, высота метеостанции:
Брохово 59.7°ш. 154.3°д. 5 м над ур. моря [Российская Федерация]

Дополнительная информация

В oтличие oт бoльшинства пoгoдных сайтoв мы публикуем пoдрoбную метеoинфoрмацию в детальнoм прoфессиoнальнoм фoрмате.

Характеристики температуры и влажнoсти вoздуха измеряются на высoте 2 м в тени вдали oт зданий и деревьев.
Скoрoсть ветра измеряется на высoте 10 м (на урoвне рoста челoвека скoрoсть ветра ниже в 1.5-2 раза). Если метеoстанция нахoдится в гoрoде или в лесу, тo скoрoсть ветра занижена на 2-4 м/с пo сравнению с oткрытым местoм. Скoрoсть ветра над акватoриями крупных рек и oзёр, а также на вершинах хoлмoв на 2-5 м/с выше, чем в oбычных услoвиях.
Атмoсфернoе давление в разных тoчках местнoсти мoжет значительнo oтличаться oт давления на метеoстанции, в зависимoсти oт услoвий рельефа (при пoдъёме на 10 м давление пoнижается примернo на 1 мм рт.ст.).